Location: Ellerstadt
(49.4644°N, 8.2615°E)
Time: 01:20:33
(UTC+00:00)

ISS - Pass Details

Date: 17 May 2021
Orbit: 417 x 422 km, 51.6° (Epoch: 15 June)

Event Time Altitude Azimuth Distance (km) Brightness Sun altitude
Rises 21:39:09 0° 263° (W) 2,364 0.3 -17.2°
Reaches altitude 10° 21:41:15 10° 267° (W) 1,502 -0.7 -17.4°
Maximum altitude 21:44:37 65° 350° (N) 467 -3.4 -17.6°
Drops below altitude 10° 21:47:59 10° 73° (ENE) 1,507 -1.0 -17.8°
Enters shadow 21:49:41 - 76° (ENE) 2,205 -0.2 -17.9°
